Temperature
3 2 2 2 3 3 4 3 4 5 6 6 6 6 7 9 9 9 10 11 11 13 14 14 14 14 14 14 13 14 13 13 13 13 13 13 13 13 12 12 12 12 12 12
2 1 3 3 4 3 3 3 3 4 6 6 6 6 7 8 9 9 10 10 11 12 13 13 14 14 14 14 14 13 13 13 13 13 13 13 13 13 12 12 12 12 12 12
2 2 4 4 3 3 3 3 3 4 5 5 5 5 7 8 9 9 10 10 11 11 12 13 13 14 14 14 14 14 14 13 13 13 13 12 12 12 12 12 12 12 12 12
2 3 3 3 3 3 3 4 4 4 4 4 5 4 6 7 8 8 9 10 10 11 12 13 13 14 14 14 14 14 14 14 13 13 13 13 12 13 13 13 13 13 12 12
1 2 3 3 3 3 3 4 4 4 3 3 4 4 5 6 7 8 8 9 10 11 11 12 13 14 14 14 14 14 14 14 13 13 13 13 13 13 13 13 13 13 12 12
1 3 3 3 3 3 3 3 3 3 3 3 4 4 4 5 7 8 8 9 10 10 11 12 13 13 14 14 14 14 14 14 13 13 13 13 13 13 13 13 13 13 13 12
0 2 2 3 2 3 3 2 2 2 2 2 4 4 4 5 6 7 8 9 9 10 10 11 12 13 13 14 14 14 14 14 14 13 13 13 14 14 14 14 14 13 13 13
-2 -0 2 2 2 2 2 2 2 2 3 3 4 4 4 5 6 7 7 8 8 9 10 10 11 12 13 13 14 14 14 14 14 14 14 14 14 14 14 14 14 14 14 14
-1 -1 2 2 2 2 2 2 2 2 2 3 4 4 5 5 5 5 5 6 6 7 8 9 10 11 12 13 14 14 14 14 14 14 14 14 14 14 14 14 14 14 14 14
-1 -1 0 1 2 2 2 1 1 2 2 3 3 4 4 4 4 5 5 5 5 6 7 8 9 10 11 13 13 14 14 14 14 14 14 14 14 14 14 14 14 14 14 14
-1 -2 -1 -0 -0 0 1 1 1 1 2 2 3 4 4 3 4 4 4 4 5 5 5 6 8 9 10 11 13 14 14 14 14 14 14 14 14 14 14 14 14 14 14 14
-1 -2 -2 -1 -0 0 0 -0 0 0 0 1 2 3 3 3 3 3 3 4 4 4 5 6 7 8 9 10 11 13 13 13 14 14 14 14 14 13 13 13 14 14 14 13
-1 -2 -3 -2 -1 -1 -1 -1 -1 -1 -0 0 1 2 4 3 3 3 3 3 3 4 4 5 6 7 8 9 10 11 12 13 13 14 14 14 13 13 13 13 14 14 13 13
1 -2 -3 -2 -2 -2 -2 -1 -1 -1 -1 -0 0 1 2 2 2 2 3 3 3 3 3 4 5 6 7 8 9 10 11 12 13 13 14 13 13 13 13 13 14 13 13 13
-1 -2 -3 -2 -1 -1 -1 -1 -0 -1 -0 -0 0 1 1 2 2 2 2 2 2 2 2 3 4 4 6 7 8 10 10 11 12 13 13 14 14 14 13 13 13 13 13 13
-2 -3 -2 -2 -1 -0 -0 0 0 0 -0 -0 0 1 1 1 1 1 1 2 2 2 2 2 3 4 5 6 7 9 10 11 11 12 13 13 13 13 13 13 12 12 12 12
-3 -3 -3 -2 -1 -1 -1 -0 -0 -0 -0 -1 -0 0 0 0 1 1 1 1 1 1 1 2 2 3 4 5 6 8 9 10 10 11 12 12 12 12 13 13 12 12 12 12
-3 -3 -3 -3 -3 -3 -1 -0 -0 -0 -1 -1 -0 -0 -0 0 1 1 1 1 1 1 1 1 2 3 4 5 6 7 8 9 10 11 11 11 12 12 12 12 12 12 12 11
-3 -3 -3 -3 -3 -3 -1 -0 -1 -1 -1 -1 -1 -0 -0 0 1 1 1 1 1 1 1 1 2 3 4 5 6 7 7 8 9 10 10 11 11 11 12 12 12 11 11 11
-3 -3 -3 -4 -3 -2 -1 0 0 -1 -1 -1 -1 -1 -1 -1 -1 0 1 1 1 1 1 2 2 3 4 5 5 6 7 8 8 9 9 10 10 11 11 11 11 11 11 11
-4 -4 -4 -4 -4 -3 -1 -0 -0 -2 -2 -0 -0 -1 -1 -1 -1 0 0 1 1 1 1 2 2 3 3 4 5 5 6 7 8 8 9 9 10 10 10 11 11 11 11 10
-4 -5 -5 -5 -4 -3 -1 -1 -1 -2 -0 -0 -0 -0 -1 -0 -0 -0 -0 0 0 1 1 1 2 3 3 4 4 5 6 6 7 7 8 8 9 9 9 9 10 10 10 10
-4 -4 -5 -4 -3 -2 -1 -1 -0 0 -0 -0 -0 -0 -0 -1 -1 -1 -1 -0 -0 0 1 1 1 2 3 3 4 4 5 6 6 7 7 8 8 8 9 9 9 9 9 9
-5 -5 -5 -5 -4 -3 -1 -0 -0 -0 -0 -0 -1 -1 -1 -1 -1 -1 -1 -1 -0 0 0 1 1 2 3 3 3 4 4 5 5 6 6 7 7 7 8 8 8 8 8 8
-4 -5 -5 -5 -4 -3 -2 -1 -0 -1 -1 -1 -1 -1 -1 -1 -1 -1 -1 -1 -1 -0 -0 0 0 1 2 3 3 3 4 4 5 5 6 6 6 7 7 7 8 8 8 9
-5 -5 -5 -4 -3 -3 -3 -1 -1 -1 -2 -2 -2 -2 -2 -2 -2 -2 -2 -1 -1 -1 -1 -0 0 1 1 2 3 3 3 4 4 4 5 5 5 6 6 7 7 7 8 8
Wind_Speed
1 2 7 9 10 12 11 12 14 15 11 11 15 18 17 13 12 13 12 11 12 14 13 10 13 14 15 16 18 19 19 18 16 15 14 14 14 12 11 10 14 17 17 18
2 7 11 10 10 11 13 14 15 14 10 9 13 18 17 15 15 14 14 13 13 13 11 10 12 13 16 18 19 20 20 19 19 16 14 11 11 9 10 10 12 17 17 18
7 7 7 8 10 11 13 12 12 12 12 9 10 12 12 12 13 13 12 12 12 14 13 11 11 14 15 17 19 19 21 21 20 16 12 10 8 8 9 11 12 14 17 17
6 6 7 9 10 9 13 9 13 14 9 6 4 8 8 8 10 11 11 11 11 12 12 10 11 13 15 18 18 19 21 21 20 18 16 18 15 13 12 12 11 13 15 16
7 5 7 8 9 8 9 9 10 11 9 9 6 7 8 5 8 10 11 10 10 10 11 10 11 13 13 15 16 18 19 21 21 20 20 20 15 12 9 10 12 14 13 14
8 6 5 5 7 7 7 6 7 6 5 8 9 7 7 4 6 7 8 8 9 9 10 10 9 10 11 12 13 15 18 19 20 22 22 21 19 15 14 14 15 13 11 12
7 5 4 3 6 4 3 3 2 2 3 6 5 6 7 5 5 5 6 6 6 7 8 8 8 9 11 12 14 15 18 19 20 22 23 22 21 19 19 17 16 14 12 12
5 8 4 3 3 4 5 3 3 3 4 4 4 7 4 4 5 5 5 5 5 5 5 5 6 8 10 13 15 16 18 19 20 21 22 20 19 16 15 16 15 16 14 14
3 7 6 7 6 3 4 3 3 3 4 4 4 4 4 5 8 8 9 9 8 8 6 4 4 5 7 10 13 16 17 18 19 21 21 19 19 17 16 15 14 14 11 11
3 7 8 6 4 2 2 3 2 2 3 5 4 3 3 6 8 9 10 10 10 10 8 7 4 4 4 6 9 13 16 17 17 19 19 16 18 18 15 13 15 15 14 13
2 4 7 6 2 4 3 2 2 3 3 3 3 2 2 3 5 7 8 9 10 10 9 8 7 5 3 3 5 8 12 15 15 16 17 16 17 17 15 14 16 14 13 14
3 2 5 7 6 3 2 1 1 2 5 4 3 4 3 5 8 9 10 11 11 10 10 9 7 6 4 3 3 5 8 11 13 15 16 17 15 15 16 15 14 14 14 14
1 1 4 8 5 3 2 2 3 3 3 4 4 5 4 8 10 10 10 11 11 11 12 10 9 8 6 5 3 3 6 8 10 12 14 15 15 15 17 16 15 14 15 14
2 2 5 7 8 5 7 8 6 3 3 5 6 9 11 12 13 12 12 11 10 11 11 11 10 10 9 7 5 4 4 5 7 10 12 15 16 17 17 15 15 15 15 15
1 4 7 11 12 9 11 12 9 7 7 7 8 9 11 11 10 9 9 10 11 12 12 12 12 11 10 9 7 5 4 3 5 8 10 12 13 14 14 13 13 14 14 15
1 4 4 7 9 9 11 12 10 9 8 9 10 11 9 9 7 7 8 9 11 12 13 13 12 12 11 10 8 6 4 3 3 6 8 8 9 10 12 13 13 13 14 14
3 3 3 6 7 7 7 6 5 5 4 5 7 9 9 9 10 7 7 8 10 12 12 13 12 11 11 10 8 6 5 3 3 4 6 6 7 9 10 11 13 13 14 13
5 4 3 4 4 6 6 3 4 6 7 5 6 8 8 10 10 6 4 6 9 11 12 12 12 11 10 10 8 6 4 2 1 2 3 5 6 7 8 9 12 12 11 12
9 6 3 2 4 8 6 3 2 4 6 4 6 9 9 9 7 5 5 6 8 9 10 10 10 10 10 10 8 5 3 2 0 1 2 4 6 7 8 9 10 10 10 11
5 5 4 3 4 6 6 4 2 1 5 5 5 8 8 6 5 7 9 9 10 9 9 9 9 9 9 9 7 4 3 2 2 2 2 3 5 7 8 9 8 7 8 9
3 3 6 6 6 8 7 3 1 2 6 6 5 6 6 4 6 8 10 10 9 10 10 10 9 8 8 8 6 5 3 3 3 2 1 1 4 5 6 6 6 7 7 8
7 5 6 5 6 9 4 2 4 6 5 5 6 6 7 7 9 9 9 10 10 10 11 10 9 8 7 7 5 5 5 4 2 1 0 1 2 3 4 6 6 7 8 9
8 9 6 9 9 6 4 6 6 5 5 6 6 8 7 8 8 9 9 9 9 9 10 9 8 9 8 6 5 5 5 4 2 1 1 1 1 3 4 6 7 7 7 7
5 5 5 6 9 8 8 7 6 6 7 8 8 8 7 8 9 10 9 9 9 9 9 8 8 8 8 7 6 5 4 3 1 1 1 1 2 2 3 3 5 6 7 7
7 5 5 8 9 8 8 7 7 7 6 7 8 7 7 8 9 8 8 9 9 9 8 8 7 8 9 8 6 5 4 2 1 0 1 1 2 2 2 2 2 4 5 7
7 9 8 10 8 7 8 6 6 7 8 8 8 8 7 6 8 8 8 8 8 8 8 8 8 8 8 7 7 5 3 1 1 0 1 1 1 2 2 2 2 4 4 6
Wind_Direction
296 233 242 241 236 249 264 275 278 280 288 283 271 274 278 268 257 253 248 247 247 242 234 219 211 202 197 195 192 192 190 186 182 181 180 179 182 179 178 180 178 178 178 176
307 256 253 257 261 265 262 269 275 285 281 276 275 275 270 261 251 244 241 240 244 248 242 223 209 201 198 196 195 193 193 189 188 190 186 183 175 177 177 177 181 182 181 180
254 264 276 273 272 271 263 254 261 272 291 275 274 279 259 253 244 242 235 235 240 242 240 227 212 203 198 199 198 196 194 192 191 186 177 168 161 162 176 185 187 186 184 184
274 272 278 278 275 266 273 263 262 267 275 273 245 280 272 255 253 242 237 231 234 240 238 227 214 208 202 202 201 198 196 194 191 186 184 181 185 190 191 186 186 183 185 186
275 279 287 281 277 272 265 283 275 263 258 268 244 254 278 259 254 247 237 229 231 234 234 229 216 211 207 202 199 200 196 195 192 190 190 190 195 194 176 174 178 183 186 188
265 269 263 267 285 276 282 290 275 254 238 253 230 218 274 242 249 262 244 236 233 232 233 232 221 211 207 203 199 196 196 196 193 192 194 195 196 188 177 180 185 187 188 190
317 305 297 302 314 303 300 313 309 290 234 248 219 212 250 263 273 273 272 266 252 241 234 233 222 210 207 202 199 196 196 198 194 195 197 199 198 193 190 188 189 187 188 193
325 307 304 318 299 293 288 252 233 260 257 278 233 228 254 282 296 322 329 330 329 298 259 242 229 217 212 206 201 197 198 200 196 196 199 199 197 197 199 193 191 192 196 196
292 286 296 299 286 264 296 268 255 278 287 276 249 268 298 349 360 1 0 0 349 337 319 295 264 233 223 212 204 199 200 201 198 198 200 199 198 199 200 195 192 194 192 186
229 280 296 307 320 305 265 296 313 265 273 270 262 260 311 346 355 356 359 355 348 347 342 330 310 273 246 225 210 201 200 200 199 199 200 200 200 201 199 192 194 195 188 181
213 259 302 329 326 298 331 336 314 287 270 279 293 296 349 359 358 353 346 344 345 348 344 338 331 310 278 250 215 203 203 201 199 198 199 199 200 198 195 197 198 194 185 183
236 221 282 278 269 256 221 253 270 290 294 283 285 284 334 9 5 357 351 349 349 349 346 342 340 342 333 302 255 212 206 204 202 199 197 198 197 194 195 199 198 192 187 186
253 178 322 328 335 353 339 285 268 269 264 265 260 272 329 351 353 354 352 349 348 350 351 352 354 353 342 322 297 253 221 211 207 201 196 196 195 194 198 201 197 192 190 187
280 203 208 240 261 279 289 290 285 261 256 271 257 281 308 327 333 337 342 343 345 348 351 353 354 348 342 331 312 287 252 226 210 200 196 197 197 197 200 199 195 192 190 189
132 250 246 256 267 267 267 275 274 255 244 251 272 279 294 310 312 320 330 338 346 348 350 351 349 344 341 337 329 313 284 239 214 199 195 199 199 196 194 192 192 190 191 192
182 251 271 275 267 270 271 271 268 262 259 259 275 279 294 302 305 316 329 340 344 343 343 342 342 342 339 334 328 319 306 268 213 200 197 193 189 190 191 190 187 188 190 190
232 224 267 275 295 303 269 261 260 261 258 252 264 278 308 316 316 314 321 332 337 337 336 335 333 332 330 327 321 313 302 287 216 200 193 182 179 184 189 188 184 187 189 187
200 199 233 281 329 266 249 246 244 256 256 259 279 293 299 298 295 286 301 322 328 330 330 328 327 326 327 325 320 316 317 318 240 205 194 180 175 180 178 180 188 189 187 189
196 193 214 244 268 275 283 276 237 242 262 265 278 296 306 309 310 295 316 325 315 311 316 316 316 319 323 324 322 317 321 331 335 232 214 191 177 175 176 183 189 186 184 188
174 185 201 216 247 259 257 270 275 208 271 282 286 295 304 323 318 296 319 319 312 312 316 318 320 324 326 325 324 317 319 325 286 261 243 204 184 180 184 187 184 180 180 184
165 191 211 218 238 263 258 278 69 182 260 288 286 286 294 277 262 289 308 310 313 316 317 319 322 325 322 325 328 323 319 304 292 287 265 201 186 185 181 175 171 170 169 170
194 196 209 195 219 252 248 165 198 235 266 282 286 285 282 280 285 297 304 308 315 319 320 322 324 323 324 330 333 326 311 309 322 335 77 155 173 163 155 158 161 162 164 168
209 201 199 202 223 247 239 229 248 251 267 278 280 286 286 288 289 297 301 305 310 314 316 319 319 320 325 329 329 316 313 325 352 39 75 97 125 143 153 159 160 160 164 169
250 204 204 246 259 262 266 265 269 261 262 274 278 281 284 283 288 293 298 304 310 311 312 317 321 322 323 326 325 314 316 329 14 63 86 110 128 125 131 148 161 166 170 169
224 200 217 246 265 283 273 260 268 280 285 287 286 280 277 282 287 289 294 299 303 305 309 315 316 314 313 318 319 319 321 335 29 78 116 118 117 119 121 125 159 172 182 177
201 204 215 242 236 234 259 264 274 283 286 288 290 291 289 283 286 292 295 296 299 302 306 311 311 308 308 312 312 312 310 304 135 146 158 148 138 129 129 122 83 71 125 141
Height
1440 1442 1440 1436 1434 1432 1431 1429 1426 1419 1415 1415 1410 1405 1401 1399 1398 1397 1397 1397 1398 1399 1401 1405 1408 1412 1417 1422 1427 1432 1437 1442 1447 1452 1457 1462 1467 1472 1477 1482 1487 1492 1496 1500
1442 1440 1434 1432 1431 1430 1429 1428 1424 1417 1413 1411 1407 1401 1396 1393 1392 1391 1391 1392 1393 1394 1396 1399 1402 1406 1410 1415 1421 1426 1432 1437 1442 1446 1451 1457 1463 1468 1473 1478 1483 1488 1492 1496
1441 1435 1430 1429 1428 1428 1425 1424 1421 1418 1412 1408 1407 1399 1391 1385 1384 1384 1385 1386 1388 1389 1390 1393 1396 1400 1404 1409 1414 1420 1425 1431 1436 1442 1448 1454 1460 1465 1469 1473 1477 1482 1487 1492
1437 1432 1430 1428 1427 1425 1421 1416 1414 1413 1414 1411 1407 1403 1388 1382 1379 1378 1378 1379 1381 1383 1385 1387 1390 1394 1398 1402 1408 1414 1419 1425 1430 1436 1441 1446 1450 1454 1459 1465 1471 1477 1482 1487
1437 1431 1429 1426 1423 1421 1418 1413 1412 1410 1412 1412 1405 1407 1389 1380 1377 1374 1373 1373 1375 1378 1380 1382 1384 1387 1392 1396 1401 1407 1413 1419 1425 1430 1435 1440 1445 1450 1456 1462 1467 1472 1477 1482
1434 1429 1427 1424 1420 1418 1416 1413 1410 1408 1410 1410 1401 1403 1392 1382 1375 1370 1369 1369 1370 1372 1374 1377 1380 1383 1387 1391 1395 1400 1406 1412 1418 1424 1429 1434 1439 1444 1450 1455 1461 1466 1471 1476
1437 1430 1426 1423 1421 1416 1416 1417 1417 1415 1414 1408 1394 1394 1387 1376 1372 1370 1368 1367 1367 1369 1370 1372 1374 1378 1381 1385 1390 1394 1400 1406 1412 1417 1423 1427 1433 1438 1443 1449 1455 1460 1464 1469
1449 1439 1428 1424 1424 1422 1419 1418 1420 1416 1408 1399 1390 1387 1382 1374 1370 1369 1367 1366 1365 1366 1366 1367 1369 1373 1376 1380 1384 1388 1393 1399 1405 1410 1415 1421 1427 1432 1438 1443 1448 1453 1458 1463
1449 1441 1427 1423 1421 1421 1419 1416 1414 1413 1408 1402 1390 1384 1379 1373 1371 1369 1368 1366 1366 1364 1364 1364 1365 1368 1371 1374 1377 1382 1387 1392 1398 1403 1409 1414 1420 1425 1431 1436 1442 1448 1453 1458
1447 1445 1431 1425 1421 1419 1420 1418 1417 1415 1411 1401 1391 1386 1384 1378 1376 1373 1371 1369 1367 1364 1363 1362 1362 1363 1365 1368 1372 1376 1381 1386 1391 1396 1402 1408 1413 1419 1425 1430 1436 1441 1447 1452
1446 1447 1436 1430 1427 1425 1423 1421 1419 1417 1411 1405 1393 1389 1383 1381 1378 1376 1374 1371 1368 1365 1363 1361 1359 1360 1361 1363 1366 1370 1375 1380 1385 1390 1395 1401 1407 1412 1418 1424 1429 1435 1440 1446
1444 1446 1443 1434 1425 1423 1423 1424 1423 1423 1418 1412 1404 1397 1384 1382 1380 1378 1375 1372 1370 1367 1363 1361 1358 1357 1358 1359 1361 1364 1368 1373 1378 1383 1389 1394 1400 1406 1412 1417 1423 1429 1434 1440
1442 1445 1447 1437 1432 1428 1426 1424 1423 1422 1419 1413 1406 1396 1384 1383 1381 1380 1377 1374 1370 1367 1363 1360 1357 1356 1356 1356 1357 1359 1363 1367 1372 1377 1382 1388 1394 1400 1405 1411 1417 1422 1428 1434
1437 1442 1446 1444 1436 1431 1429 1424 1421 1421 1420 1414 1406 1397 1388 1385 1383 1380 1377 1375 1371 1368 1364 1360 1357 1355 1354 1354 1354 1356 1358 1362 1366 1371 1376 1381 1387 1393 1399 1405 1411 1416 1422 1427
1437 1439 1438 1433 1427 1426 1423 1419 1416 1416 1413 1411 1402 1397 1391 1388 1385 1382 1379 1375 1372 1369 1365 1361 1358 1355 1353 1352 1352 1352 1354 1357 1361 1366 1370 1375 1381 1387 1393 1399 1404 1410 1415 1421
1437 1438 1435 1429 1422 1420 1416 1411 1410 1408 1406 1405 1401 1395 1390 1387 1384 1381 1379 1376 1373 1370 1366 1362 1359 1355 1352 1350 1350 1350 1351 1354 1357 1361 1365 1370 1375 1381 1387 1393 1398 1404 1409 1415
1436 1437 1435 1429 1421 1417 1414 1408 1406 1405 1403 1402 1399 1395 1390 1387 1383 1381 1378 1376 1373 1370 1366 1363 1359 1356 1352 1350 1349 1348 1349 1351 1354 1357 1361 1365 1370 1375 1381 1387 1393 1398 1403 1408
1433 1434 1433 1429 1427 1426 1411 1402 1402 1402 1399 1398 1396 1392 1389 1385 1381 1378 1377 1375 1372 1369 1366 1362 1358 1354 1351 1349 1347 1347 1347 1349 1351 1354 1357 1361 1365 1370 1375 1381 1387 1392 1397 1403
1426 1429 1431 1430 1429 1418 1406 1400 1400 1401 1397 1394 1393 1390 1386 1383 1379 1376 1374 1373 1371 1368 1365 1361 1357 1354 1350 1348 1346 1345 1346 1347 1348 1351 1353 1357 1361 1365 1370 1375 1381 1386 1392 1397
1423 1425 1429 1429 1426 1415 1404 1397 1395 1398 1397 1391 1389 1387 1385 1383 1382 1376 1373 1371 1368 1365 1362 1359 1355 1352 1349 1347 1345 1344 1344 1345 1346 1348 1351 1354 1357 1362 1366 1370 1375 1381 1386 1391
1425 1427 1427 1427 1423 1410 1398 1394 1395 1402 1397 1389 1386 1385 1383 1382 1380 1376 1372 1369 1366 1363 1359 1356 1353 1350 1348 1346 1344 1343 1343 1343 1344 1347 1349 1352 1355 1358 1362 1366 1371 1376 1381 1387
1420 1424 1425 1424 1422 1409 1392 1393 1395 1393 1387 1386 1384 1383 1381 1378 1376 1373 1370 1367 1364 1360 1357 1354 1351 1348 1346 1345 1343 1342 1342 1342 1343 1344 1347 1349 1352 1355 1359 1363 1367 1372 1377 1382
1412 1411 1411 1410 1403 1392 1389 1388 1387 1386 1385 1383 1381 1379 1378 1375 1373 1370 1367 1364 1361 1358 1355 1352 1349 1346 1345 1344 1342 1342 1341 1341 1341 1343 1345 1347 1350 1353 1356 1359 1363 1368 1373 1377
1403 1401 1403 1401 1392 1388 1385 1384 1383 1383 1381 1379 1378 1376 1374 1372 1369 1366 1364 1361 1358 1355 1353 1350 1347 1344 1342 1342 1341 1340 1340 1339 1340 1341 1343 1345 1348 1350 1353 1357 1360 1364 1368 1372
1397 1397 1397 1394 1388 1384 1381 1380 1379 1378 1377 1375 1373 1372 1370 1367 1365 1363 1360 1357 1355 1353 1350 1348 1345 1342 1340 1339 1339 1338 1338 1338 1338 1339 1341 1343 1346 1348 1351 1354 1358 1361 1365 1369
1388 1390 1391 1386 1381 1381 1377 1376 1375 1374 1372 1370 1369 1366 1365 1363 1361 1358 1356 1354 1352 1350 1348 1345 1343 1340 1338 1337 1336 1336 1336 1336 1337 1338 1339 1341 1344 1346 1349 1352 1355 1359 1364 1368